Adelanto, California, United States (92301)
Lat: 34.58N, Lon: 117.41W
Wx Zone: CAZ060
Local Info
Past Weather Observations for Yesterday

NOTE: This archive is for the closest National Weather Service station to Adelanto. Information may differ from the station used for current weather conditions.

Click here for Long-term Archive

Time Weather Temperature Dewpoint Humidity Pressure Winds Precip Visibility
23:55
Clear
79°F / 26°C 43°F / 6°C 28% 30.12 in
(1020 mb)
W 6.9 mph
(W 11 kph)
- 10SM
23:35
Partly Cloudy
79°F / 26°C 43°F / 6°C 28% 30.12 in
(1020 mb)
W 6.9 mph
(W 11 kph)
- 10SM
23:15
Mostly Cloudy
79°F / 26°C 43°F / 6°C 28% 30.12 in
(1020 mb)
W 6.9 mph
(W 11 kph)
- 10SM
22:55
Mostly Cloudy
79°F / 26°C 43°F / 6°C 28% 30.15 in
(1021 mb)
W 4.6 mph
(W 7 kph)
- 10SM
22:35
Clear
79°F / 26°C 43°F / 6°C 28% 30.15 in
(1021 mb)
SSW 5.8 mph
(SSW 9 kph)
- 10SM
22:15
Clear
81°F / 27°C 43°F / 6°C 26% 30.15 in
(1021 mb)
W 6.9 mph
(W 11 kph)
- 10SM
21:55
Clear
81°F / 27°C 43°F / 6°C 26% 30.12 in
(1020 mb)
W 6.9 mph
(W 11 kph)
- 10SM
21:35
Clear
82°F / 28°C 45°F / 7°C 26% 30.12 in
(1020 mb)
W 6.9 mph
(W 11 kph)
- 10SM
21:15
Clear
82°F / 28°C 45°F / 7°C 26% 30.12 in
(1020 mb)
W 8.1 mph
(W 13 kph)
- 10SM
20:55
Clear
84°F / 29°C 45°F / 7°C 25% 30.12 in
(1020 mb)
W 6.9 mph
(W 11 kph)
- 10SM
20:35
Clear
84°F / 29°C 45°F / 7°C 25% 30.12 in
(1020 mb)
W 6.9 mph
(W 11 kph)
- 10SM
20:15
Clear
86°F / 30°C 43°F / 6°C 22% 30.12 in
(1020 mb)
WNW 6.9 mph
(WNW 11 kph)
- 10SM
19:55
Clear
86°F / 30°C 45°F / 7°C 24% 30.12 in
(1020 mb)
WNW 10.4 mph
(WNW 17 kph)
- 10SM
19:35
Partly Cloudy
88°F / 31°C 45°F / 7°C 22% 30.09 in
(1019 mb)
WNW 9.2 mph
(WNW 15 kph)
- 10SM
19:15
Partly Cloudy
88°F / 31°C 45°F / 7°C 22% 30.09 in
(1019 mb)
W 9.2 mph
(W 15 kph)
- 10SM
18:55
Clear
90°F / 32°C 46°F / 8°C 22% 30.09 in
(1019 mb)
W 8.1 mph
(W 13 kph)
- 10SM
18:35
Clear
90°F / 32°C 45°F / 7°C 21% 30.09 in
(1019 mb)
SSW 11.5 mph
(SSW 19 kph)
- 10SM
18:15
Clear
90°F / 32°C 46°F / 8°C 22% 30.09 in
(1019 mb)
NW 8.1 mph
(NW 13 kph)
- 10SM
17:55
Clear
91°F / 33°C 46°F / 8°C 21% 30.09 in
(1019 mb)
NW 8.1 mph
(NW 13 kph)
- 10SM
17:35
Partly Cloudy
91°F / 33°C 46°F / 8°C 21% 30.06 in
(1018 mb)
NW 8.1 mph
(NW 13 kph)
- 10SM
17:15
Partly Cloudy
91°F / 33°C 46°F / 8°C 21% 30.06 in
(1018 mb)
WNW 10.4 mph
(WNW 17 kph)
- 10SM
16:55
Partly Cloudy
91°F / 33°C 46°F / 8°C 21% 30.06 in
(1018 mb)
NW 10.4 mph
(NW 17 kph)
- 10SM
16:35
Partly Cloudy
93°F / 34°C 46°F / 8°C 20% 30.06 in
(1018 mb)
NW 12.7 mph
(NW 20 kph)
- 10SM
16:15
Partly Cloudy
93°F / 34°C 46°F / 8°C 20% 30.09 in
(1019 mb)
NW 9.2 mph
(NW 15 kph)
- 10SM
15:55
Mostly Cloudy
93°F / 34°C 46°F / 8°C 20% 30.09 in
(1019 mb)
NW 11.5 mph
(NW 19 kph)
- 10SM
15:35
Partly Cloudy
91°F / 33°C 48°F / 9°C 23% 30.09 in
(1019 mb)
NW 11.5 mph
(NW 19 kph)
- 10SM
15:15
Mostly Cloudy
95°F / 35°C 48°F / 9°C 20% 30.09 in
(1019 mb)
SSW 9.2 mph
(SSW 15 kph)
- 10SM
14:55
Mostly Cloudy
91°F / 33°C 52°F / 11°C 26% 30.09 in
(1019 mb)
SSE 3.5 mph
(SSE 6 kph)
- 10SM
14:35
Mostly Cloudy
91°F / 33°C 52°F / 11°C 26% 30.09 in
(1019 mb)
SSW 3.5 mph
(SSW 6 kph)
- 10SM
14:15
Partly Cloudy
91°F / 33°C 52°F / 11°C 26% 30.09 in
(1019 mb)
N 4.6 mph
(N 7 kph)
- 10SM
13:55
Partly Cloudy
91°F / 33°C 52°F / 11°C 26% 30.12 in
(1020 mb)
WNW 4.6 mph
(WNW 7 kph)
- 10SM
13:35
Partly Cloudy
91°F / 33°C 52°F / 11°C 26% 30.12 in
(1020 mb)
NW 5.8 mph
(NW 9 kph)
- 10SM
13:15
Partly Cloudy
91°F / 33°C 52°F / 11°C 26% 30.12 in
(1020 mb)
W 3.5 mph
(W 6 kph)
- 10SM
12:55
Partly Cloudy
91°F / 33°C 52°F / 11°C 26% 30.12 in
(1020 mb)
NE 6.9 mph
(NE 11 kph)
- 10SM
12:35
Partly Cloudy
90°F / 32°C 54°F / 12°C 29% 30.15 in
(1021 mb)
NNW 4.6 mph
(NNW 7 kph)
- 10SM
12:15
Partly Cloudy
90°F / 32°C 54°F / 12°C 29% 30.15 in
(1021 mb)
E 3.5 mph
(E 6 kph)
- 10SM
11:55
Partly Cloudy
88°F / 31°C 54°F / 12°C 31% 30.15 in
(1021 mb)
NE 6.9 mph
(NE 11 kph)
- 10SM
11:35
Partly Cloudy
88°F / 31°C 54°F / 12°C 31% 30.15 in
(1021 mb)
NE 6.9 mph
(NE 11 kph)
- 10SM
11:15
Partly Cloudy
88°F / 31°C 54°F / 12°C 31% 30.15 in
(1021 mb)
NE 8.1 mph
(NE 13 kph)
- 10SM
10:55
Partly Cloudy
90°F / 32°C 54°F / 12°C 29% 30.15 in
(1021 mb)
NNE 5.8 mph
(NNE 9 kph)
- 10SM
10:35
Partly Cloudy
88°F / 31°C 54°F / 12°C 31% 30.18 in
(1022 mb)
ENE 9.2 mph
(ENE 15 kph)
- 10SM
10:15
Partly Cloudy
86°F / 30°C 55°F / 13°C 35% 30.18 in
(1022 mb)
NE 6.9 mph
(NE 11 kph)
- 10SM
09:55
Mostly Cloudy
84°F / 29°C 55°F / 13°C 37% 30.18 in
(1022 mb)
Calm - 10SM
09:35
Mostly Cloudy
82°F / 28°C 55°F / 13°C 40% 30.18 in
(1022 mb)
ENE 3.5 mph
(ENE 6 kph)
- 10SM
09:15
Mostly Cloudy
82°F / 28°C 55°F / 13°C 40% 30.18 in
(1022 mb)
N 3.5 mph
(N 6 kph)
- 10SM
08:55
Partly Cloudy
82°F / 28°C 57°F / 14°C 42% 30.18 in
(1022 mb)
N 6.9 mph
(N 11 kph)
- 10SM
08:35
Mostly Cloudy
81°F / 27°C 57°F / 14°C 45% 30.18 in
(1022 mb)
NE 3.5 mph
(NE 6 kph)
- 10SM
08:15
Partly Cloudy
81°F / 27°C 63°F / 17°C 54% 30.18 in
(1022 mb)
Calm - 10SM
07:55
Partly Cloudy
79°F / 26°C 61°F / 16°C 54% 30.18 in
(1022 mb)
Calm - 10SM
07:35
Partly Cloudy
77°F / 25°C 61°F / 16°C 57% 30.18 in
(1022 mb)
Calm - 10SM
07:15
Partly Cloudy
75°F / 24°C 63°F / 17°C 65% 30.15 in
(1021 mb)
Calm - 10SM
06:55
Partly Cloudy
75°F / 24°C 61°F / 16°C 61% 30.15 in
(1021 mb)
Calm - 10SM
06:35
Partly Cloudy
73°F / 23°C 63°F / 17°C 69% 30.15 in
(1021 mb)
Calm - 10SM
06:15
Partly Cloudy
73°F / 23°C 64°F / 18°C 74% 30.15 in
(1021 mb)
Calm - 10SM
05:55
Clear
Hazy
73°F / 23°C 63°F / 17°C 69% 30.15 in
(1021 mb)
Calm - 4SM
05:35
Clear
72°F / 22°C 64°F / 18°C 78% 30.12 in
(1020 mb)
Calm - 10SM
05:15
Clear
73°F / 23°C 64°F / 18°C 74% 30.12 in
(1020 mb)
Calm - 10SM
04:55
Clear
73°F / 23°C 61°F / 16°C 65% 30.12 in
(1020 mb)
Calm - 10SM
04:35
Clear
73°F / 23°C 63°F / 17°C 69% 30.12 in
(1020 mb)
Calm - 10SM
04:15
Clear
75°F / 24°C 61°F / 16°C 61% 30.12 in
(1020 mb)
SSE 6.9 mph
(SSE 11 kph)
- 10SM
03:55
Partly Cloudy
75°F / 24°C 61°F / 16°C 61% 30.12 in
(1020 mb)
SE 5.8 mph
(SE 9 kph)
- 10SM
03:35
Partly Cloudy
73°F / 23°C 63°F / 17°C 69% 30.09 in
(1019 mb)
SSE 5.8 mph
(SSE 9 kph)
- 10SM
03:15
Mostly Cloudy
73°F / 23°C 63°F / 17°C 69% 30.09 in
(1019 mb)
SSE 8.1 mph
(SSE 13 kph)
- 10SM
02:55
Partly Cloudy
75°F / 24°C 63°F / 17°C 65% 30.09 in
(1019 mb)
Calm - 10SM
02:35
Mostly Cloudy
Drizzle
75°F / 24°C 63°F / 17°C 65% 30.09 in
(1019 mb)
SSE 4.6 mph
(SSE 7 kph)
- 10SM
02:15
Mostly Cloudy
Light Rain
73°F / 23°C 63°F / 17°C 69% 30.09 in
(1019 mb)
SSE 6.9 mph
(SSE 11 kph)
- 10SM
01:55
Overcast
Light Rain
73°F / 23°C 64°F / 18°C 74% 30.09 in
(1019 mb)
W 3.5 mph
(W 6 kph)
- 10SM
01:35
Mostly Cloudy
Drizzle
73°F / 23°C 64°F / 18°C 74% 30.09 in
(1019 mb)
Calm - 10SM
01:15
Partly Cloudy
Light Rain
73°F / 23°C 64°F / 18°C 74% 30.09 in
(1019 mb)
S 4.6 mph
(S 7 kph)
- 10SM
00:55
Overcast
Light Rain
73°F / 23°C 66°F / 19°C 78% 30.12 in
(1020 mb)
S 4.6 mph
(S 7 kph)
- 10SM
00:35
Mostly Cloudy
Light Rain
73°F / 23°C 64°F / 18°C 74% 30.12 in
(1020 mb)
SSE 4.6 mph
(SSE 7 kph)
- 10SM
00:15
Overcast
Light Rain
73°F / 23°C 64°F / 18°C 74% 30.12 in
(1020 mb)
Calm - 10SM
Time Weather Temperature Dewpoint Humidity Pressure Winds Precip Visibility


Weather for websites

WeatherForYou.com, LLC is not responsible for any damages or problems caused by this service. Current weather conditions are obtained from the closest station including government and personal stations which may have varying degrees of accuracy. Weather forecasts are derived from the NOAA NDFD. Like all things, this site belongs to Jesus Christ... He just trusts me to maintain it. If you have any questions or comments email webmaster@weatherforyou.com

Copyright © 2014, WeatherForYou.com LLC. All rights reserved.